Powrót do katalogu

ARIANE 44L+ DEB

AktywnyGTO
NORAD 23241·DEBRIS·🇫🇷 France

Wystrzelony Apr 15, 1992 z Guiana Space Centre

Loading…

TLE

Starzejące sięSource: Space-Track

Epoka: Sep 14, 2026, 16:25 UTC

1 23241U 92021L   26257.68447484  .00000344  00000-0  28464-1 0  9999
2 23241   3.6326 266.1838 7046226 332.9977 229.1900  2.24742851266041

Śledź ARIANE 44L+ DEB w czasie rzeczywistym z AllMySat

Download on the App Store